Wind_Speed
14 13 12 11 11 10 9 8 8 7 5 5 6 6 5 7 7 7 7 8 9 9 10 10 10 10 10 9 9 8 8 8 7 7 7 7 7 7 6 6 6 5 5
14 14 13 12 11 10 9 9 8 7 6 6 7 6 6 6 7 7 8 8 8 9 10 10 10 10 10 10 10 9 8 8 8 8 8 9 8 8 8 7 7 7 6
14 14 13 13 11 11 11 10 8 8 7 6 6 6 6 6 7 7 8 8 7 8 10 11 11 11 11 11 11 10 10 10 9 9 9 10 9 9 9 9 9 8 8
14 14 14 14 12 11 10 8 8 8 8 7 7 7 6 7 7 7 8 8 9 9 10 12 12 13 13 13 13 12 12 12 11 11 11 11 11 11 11 11 11 11 10
13 13 14 13 11 10 8 7 7 7 7 7 7 8 8 8 8 8 8 9 10 11 11 12 13 14 14 15 14 14 13 13 13 13 13 12 13 13 13 13 13 13 13
13 13 12 12 10 8 7 7 7 7 6 7 7 8 8 9 10 9 9 9 10 11 12 13 14 14 15 15 15 15 15 15 15 15 15 15 14 15 15 15 15 15 16
13 13 11 11 9 8 7 7 7 7 7 7 8 8 8 9 10 10 10 10 11 12 13 14 14 15 16 16 17 17 17 17 16 17 17 17 17 17 17 17 17 17 17
12 12 12 10 9 7 7 7 6 7 7 7 7 8 9 9 10 10 11 11 12 13 13 14 15 16 16 17 17 18 18 18 18 18 19 19 19 20 20 20 19 20 19
12 12 12 11 9 8 8 7 5 5 6 7 7 7 7 8 9 10 11 11 12 13 14 14 15 16 17 17 18 18 19 19 20 20 20 20 20 21 21 22 22 22 22
12 12 12 10 8 7 7 6 6 6 6 6 7 7 7 7 8 9 10 12 13 13 14 15 16 17 17 18 19 19 20 21 21 21 21 21 22 22 23 24 24 23 23
12 12 11 10 8 7 7 7 7 7 6 6 7 7 7 7 7 8 10 11 12 13 14 15 16 18 19 20 20 20 21 22 22 22 23 23 23 24 24 24 25 25 25
12 11 11 10 8 7 7 7 6 6 6 6 6 6 6 7 8 8 9 10 11 13 14 15 16 18 19 20 20 20 21 22 23 23 24 25 25 25 25 24 24 25 26
10 11 11 10 8 7 7 7 6 6 6 7 7 6 7 8 9 9 10 10 10 12 13 15 16 17 19 20 20 21 22 22 23 25 25 25 25 24 25 25 26 26 26
11 11 10 9 9 9 7 7 7 7 7 7 7 6 7 7 8 10 10 11 12 13 13 14 16 17 19 20 22 22 23 23 24 24 24 24 24 25 25 26 27 27 27
12 12 10 9 9 9 8 7 7 8 8 8 8 8 7 8 9 10 10 11 12 13 14 15 16 17 18 20 21 22 22 23 23 24 25 24 24 25 26 27 28 27 27
12 12 11 10 9 9 9 9 9 9 9 9 9 9 9 10 11 11 11 12 12 13 14 15 15 17 18 19 21 21 22 22 23 24 24 24 25 26 27 27 27 27 27
13 13 12 11 10 10 10 10 10 10 10 11 11 11 12 12 12 13 13 13 14 14 14 15 16 16 17 19 20 20 21 22 23 23 24 24 25 26 26 27 28 28 28
15 15 13 12 12 12 12 12 11 11 12 12 13 13 14 14 15 15 15 16 16 16 16 16 16 17 18 18 19 21 22 22 23 23 24 25 26 27 28 28 29 30 31
17 16 15 14 14 14 14 14 14 14 14 14 15 15 15 15 16 17 17 18 18 18 18 18 18 18 19 18 18 20 21 22 23 24 25 26 26 27 28 29 30 31 33
19 18 18 17 17 17 17 17 17 16 16 16 16 17 17 17 18 19 19 19 19 20 20 20 20 20 20 20 20 21 21 23 23 24 25 25 26 27 28 29 30 32 33
20 19 19 19 19 19 20 19 18 18 18 18 19 19 19 19 20 20 21 21 21 21 21 21 21 21 22 22 22 22 23 23 24 25 25 26 27 28 29 30 31 32 32
22 22 22 22 22 22 22 21 20 20 20 20 21 21 22 22 22 22 22 22 23 22 23 23 23 23 23 23 23 23 24 24 25 25 26 27 28 28 29 30 32 32 32
26 25 25 25 25 24 23 22 22 22 22 22 23 23 23 23 23 23 23 23 23 23 23 23 23 23 24 24 24 25 25 26 27 28 28 28 28 29 30 31 32 33 33
27 28 28 27 26 26 25 24 23 23 23 24 24 24 24 24 24 24 24 24 24 23 23 24 24 24 24 24 25 25 26 27 27 28 29 29 29 30 31 32 33 34 35
30 30 29 27 26 26 25 25 25 25 25 25 26 26 25 25 25 25 25 25 24 25 25 25 25 25 25 25 25 26 26 26 27 28 29 30 30 31 32 32 32 34 35
31 29 28 28 28 27 28 27 27 26 27 27 27 26 26 26 26 27 26 26 26 26 26 26 26 26 26 25 25 26 26 27 28 29 30 31 31 31 32 32 33 34 34
Wind_Direction
335 332 326 320 319 315 305 303 299 293 283 289 290 288 277 261 257 244 247 246 238 236 228 224 223 222 223 227 227 230 230 232 236 239 245 253 254 253 256 268 273 278 282
330 329 325 317 307 309 297 291 284 282 276 279 282 282 276 263 257 247 248 247 240 230 223 220 222 222 222 224 226 231 233 236 241 244 249 253 255 256 259 265 266 268 274
328 327 327 324 313 302 301 296 284 274 272 274 278 279 273 266 257 251 245 243 235 230 225 223 225 225 227 229 231 234 237 240 242 249 253 254 256 260 261 262 262 265 268
323 326 327 321 313 303 300 296 289 268 266 270 268 266 268 263 260 253 245 239 236 232 230 229 228 229 230 232 236 240 243 245 246 250 254 255 260 263 264 263 264 266 267
323 325 329 323 316 304 300 295 291 285 273 269 265 262 258 259 259 254 251 244 234 231 233 233 235 235 236 236 237 242 247 250 252 254 255 259 262 264 265 266 266 266 267
325 327 329 326 318 306 298 287 286 285 283 272 267 264 259 257 257 255 253 245 237 234 237 237 238 238 239 239 240 243 247 251 253 256 259 260 263 265 266 266 267 267 268
323 324 325 326 321 310 306 297 286 288 290 278 270 267 264 261 257 253 250 249 243 239 241 241 239 239 239 241 244 246 247 251 254 256 259 261 263 265 266 266 267 268 269
320 322 326 325 319 310 301 302 292 292 295 288 281 272 271 269 268 256 248 248 248 248 246 244 241 240 242 245 248 249 250 252 256 257 258 261 263 265 266 266 266 267 268
318 322 327 324 316 312 323 314 300 298 297 291 290 289 276 273 269 256 250 250 251 250 248 246 245 244 247 249 252 252 253 256 258 260 262 264 264 265 266 266 266 267 268
312 317 325 323 316 307 318 325 323 308 299 298 294 289 281 277 271 258 254 255 253 252 249 248 246 247 249 250 251 254 256 259 261 262 264 265 266 266 267 266 267 269 269
311 314 320 324 325 313 310 315 313 308 304 301 298 288 280 281 278 268 262 258 256 257 256 252 250 250 253 255 256 258 259 261 263 264 266 266 267 268 268 267 267 268 269
311 314 318 320 318 316 316 315 313 312 309 304 299 290 281 277 278 279 273 266 263 262 262 260 258 255 256 259 260 262 263 264 265 266 267 267 268 269 268 267 268 270 270
309 314 318 316 314 313 311 312 310 309 308 309 303 291 282 276 278 282 281 277 275 273 271 265 265 262 261 261 261 263 267 268 268 269 268 268 269 269 268 268 268 269 270
310 314 315 315 314 312 310 313 312 312 313 310 305 293 286 286 288 287 283 280 280 280 276 272 271 268 266 266 265 265 268 271 272 272 272 270 270 271 270 269 269 269 271
303 308 305 305 312 315 311 311 309 307 309 310 306 302 297 295 293 294 291 287 285 283 278 277 277 274 271 270 270 269 269 271 271 271 272 271 270 271 274 272 271 271 273
299 306 308 306 309 314 315 310 307 303 302 303 305 302 298 298 298 297 297 294 290 288 285 283 283 282 276 275 273 271 270 272 273 273 271 272 273 273 274 273 272 273 275
295 306 310 311 310 309 309 307 304 302 299 298 299 298 299 298 298 297 297 296 294 292 291 288 286 285 282 276 273 274 275 274 275 276 276 276 278 275 275 275 274 274 275
291 296 299 304 307 307 306 305 302 300 297 297 297 296 295 295 295 295 294 293 292 291 291 289 287 285 285 283 277 277 277 277 277 278 279 280 281 281 280 279 277 277 279
285 287 291 298 303 305 305 303 300 299 295 294 295 294 293 293 292 292 291 290 289 289 288 288 289 288 288 287 284 282 280 279 279 279 280 281 282 283 281 282 281 281 283
281 285 285 291 297 301 303 303 298 298 296 293 293 293 292 291 291 291 290 289 289 289 289 289 289 288 288 287 287 287 284 283 283 283 283 284 285 287 285 283 283 283 283
276 281 283 289 293 296 299 299 298 296 294 293 292 291 291 290 291 291 290 288 288 288 288 288 288 287 286 286 286 285 284 285 284 283 284 286 287 288 287 287 286 286 286
273 276 280 287 290 292 294 293 294 294 293 291 291 290 290 290 290 290 289 288 286 286 286 286 287 288 288 288 286 285 285 286 286 285 286 288 289 288 289 290 288 289 291
273 276 279 284 286 287 288 289 291 292 291 291 291 290 289 289 289 288 288 287 286 285 285 285 287 288 287 287 286 285 285 285 287 287 289 291 291 291 291 292 291 292 292
272 276 278 282 284 283 284 286 289 290 290 290 290 290 289 288 288 286 285 285 284 284 284 284 287 287 286 285 285 285 285 287 288 288 289 292 292 293 293 292 292 293 294
270 273 276 277 281 283 284 286 287 288 288 288 289 289 289 289 286 284 283 282 281 282 282 283 284 285 284 284 284 286 287 288 288 290 291 292 292 293 294 295 295 295 296
267 271 273 276 279 281 284 284 284 285 286 288 289 290 289 288 287 284 283 282 282 282 282 282 282 282 282 284 284 285 288 290 291 291 292 291 291 292 295 296 296 297 298
Height
5891 5888 5886 5884 5883 5881 5880 5879 5879 5879 5879 5879 5879 5879 5879 5879 5880 5881 5882 5883 5884 5886 5887 5889 5891 5892 5894 5895 5896 5897 5898 5899 5900 5901 5902 5902 5903 5903 5904 5904 5904 5904 5904
5889 5887 5884 5882 5881 5879 5878 5876 5877 5877 5877 5877 5877 5877 5877 5878 5879 5880 5880 5881 5883 5884 5886 5887 5889 5891 5892 5894 5895 5896 5897 5898 5899 5900 5901 5901 5902 5902 5902 5903 5903 5903 5902
5887 5885 5883 5881 5879 5877 5875 5875 5874 5874 5875 5875 5876 5876 5876 5877 5877 5878 5879 5880 5881 5883 5884 5886 5888 5889 5891 5892 5893 5895 5896 5897 5898 5898 5899 5900 5900 5901 5901 5901 5901 5901 5901
5885 5883 5881 5878 5877 5875 5873 5873 5873 5873 5873 5873 5874 5875 5875 5876 5876 5877 5878 5879 5880 5881 5883 5884 5886 5888 5889 5891 5892 5893 5894 5895 5896 5896 5897 5898 5898 5899 5899 5899 5899 5899 5899
5883 5881 5878 5876 5874 5872 5872 5871 5872 5871 5871 5872 5872 5873 5873 5874 5875 5875 5876 5877 5878 5880 5881 5882 5884 5885 5887 5888 5890 5891 5892 5892 5893 5894 5895 5895 5896 5896 5896 5896 5897 5897 5896
5881 5879 5876 5874 5872 5871 5871 5870 5870 5870 5870 5870 5871 5871 5871 5872 5872 5873 5874 5875 5876 5877 5879 5880 5881 5883 5884 5885 5887 5888 5889 5890 5891 5892 5892 5893 5893 5893 5893 5893 5893 5893 5893
5879 5877 5875 5873 5871 5870 5869 5869 5869 5868 5868 5868 5869 5869 5869 5869 5870 5871 5872 5873 5874 5875 5876 5877 5878 5880 5881 5883 5884 5885 5886 5887 5887 5888 5889 5889 5890 5890 5890 5890 5890 5890 5890
5878 5876 5873 5871 5870 5869 5868 5868 5867 5867 5867 5866 5866 5866 5866 5866 5867 5868 5869 5870 5871 5872 5873 5874 5875 5877 5878 5879 5880 5881 5882 5883 5884 5884 5885 5885 5886 5886 5886 5886 5886 5886 5886
5876 5875 5872 5870 5868 5867 5866 5865 5865 5865 5865 5864 5864 5864 5863 5864 5864 5865 5866 5867 5868 5869 5870 5871 5872 5874 5875 5876 5877 5878 5878 5879 5880 5880 5881 5881 5881 5881 5881 5881 5881 5882 5881
5875 5873 5871 5868 5866 5866 5866 5865 5864 5863 5863 5862 5862 5861 5861 5862 5862 5862 5863 5864 5865 5866 5867 5868 5869 5870 5871 5872 5873 5874 5874 5875 5875 5875 5876 5876 5876 5876 5876 5876 5876 5876 5876
5873 5871 5870 5868 5866 5865 5865 5864 5863 5862 5861 5860 5860 5860 5860 5860 5860 5860 5861 5862 5862 5863 5863 5864 5865 5866 5867 5868 5869 5869 5870 5870 5870 5870 5870 5870 5870 5870 5870 5870 5870 5870 5869
5871 5869 5868 5866 5865 5864 5864 5863 5862 5861 5860 5859 5858 5858 5858 5858 5859 5859 5859 5859 5859 5860 5860 5860 5861 5862 5863 5863 5864 5864 5864 5865 5865 5865 5865 5864 5864 5864 5864 5864 5863 5863 5863
5869 5867 5866 5865 5864 5863 5862 5862 5860 5860 5858 5857 5857 5857 5856 5857 5857 5857 5856 5857 5857 5856 5856 5857 5858 5858 5858 5859 5859 5859 5859 5859 5859 5859 5858 5858 5858 5858 5858 5858 5857 5857 5856
5867 5865 5864 5863 5863 5862 5861 5860 5859 5858 5857 5856 5855 5855 5855 5855 5855 5854 5854 5854 5854 5853 5853 5854 5854 5853 5853 5853 5853 5854 5854 5854 5853 5853 5852 5852 5852 5852 5851 5851 5851 5850 5850
5865 5864 5863 5862 5861 5860 5859 5858 5858 5857 5856 5855 5854 5853 5853 5853 5852 5852 5852 5851 5851 5850 5850 5850 5849 5849 5849 5848 5848 5848 5848 5848 5848 5847 5847 5846 5846 5845 5845 5845 5844 5843 5843
5862 5861 5860 5859 5858 5858 5857 5856 5856 5855 5854 5854 5853 5852 5851 5850 5850 5849 5849 5848 5848 5847 5846 5846 5845 5845 5844 5844 5843 5843 5843 5842 5842 5841 5840 5840 5839 5839 5838 5837 5837 5836 5835
5858 5858 5858 5856 5856 5855 5855 5854 5853 5853 5852 5851 5850 5849 5849 5848 5847 5846 5846 5845 5844 5843 5843 5842 5841 5840 5839 5839 5838 5838 5837 5836 5836 5835 5835 5834 5833 5832 5831 5830 5829 5829 5828
5855 5855 5855 5854 5853 5853 5852 5851 5851 5850 5849 5848 5847 5846 5846 5845 5844 5843 5842 5841 5840 5839 5838 5838 5837 5836 5835 5834 5833 5832 5831 5831 5830 5830 5829 5828 5827 5826 5825 5824 5822 5822 5821
5851 5851 5851 5851 5851 5850 5849 5848 5847 5846 5846 5845 5844 5843 5842 5841 5840 5839 5838 5837 5836 5835 5834 5833 5832 5831 5830 5829 5828 5827 5826 5825 5824 5823 5823 5821 5820 5819 5818 5817 5815 5814 5812
5846 5846 5847 5847 5846 5846 5845 5844 5843 5842 5841 5840 5840 5839 5838 5837 5836 5835 5834 5832 5832 5830 5829 5828 5827 5826 5825 5824 5823 5822 5821 5820 5818 5817 5816 5815 5813 5811 5810 5808 5807 5805 5803
5841 5841 5842 5842 5841 5841 5840 5840 5839 5838 5837 5836 5835 5834 5833 5832 5831 5829 5828 5827 5826 5825 5824 5823 5822 5820 5819 5818 5817 5816 5815 5814 5812 5811 5809 5808 5806 5804 5803 5801 5799 5797 5795
5835 5836 5836 5836 5836 5835 5835 5834 5833 5832 5831 5831 5829 5828 5827 5826 5825 5824 5822 5821 5820 5819 5818 5817 5816 5814 5813 5812 5810 5809 5808 5807 5806 5805 5803 5801 5799 5797 5795 5793 5791 5789 5787
5829 5830 5830 5830 5830 5829 5829 5828 5827 5826 5826 5825 5823 5822 5821 5820 5819 5817 5816 5815 5814 5813 5812 5810 5809 5808 5807 5805 5804 5803 5802 5800 5799 5797 5796 5794 5792 5790 5788 5786 5783 5781 5779
5822 5823 5823 5823 5823 5822 5822 5822 5821 5820 5819 5818 5817 5816 5814 5813 5812 5811 5809 5808 5807 5806 5805 5804 5803 5802 5800 5799 5797 5796 5795 5793 5792 5790 5788 5787 5785 5783 5780 5778 5775 5773 5770
5815 5816 5816 5816 5816 5815 5815 5815 5814 5813 5812 5811 5810 5809 5807 5806 5804 5803 5802 5801 5800 5799 5798 5797 5796 5795 5793 5792 5791 5789 5788 5786 5785 5783 5781 5779 5777 5775 5772 5769 5767 5764 5761
5806 5807 5807 5807 5807 5807 5807 5807 5806 5806 5805 5804 5802 5801 5800 5798 5797 5796 5795 5794 5793 5792 5790 5789 5788 5787 5786 5785 5783 5782 5780 5779 5777 5775 5773 5771 5768 5766 5764 5761 5758 5755 5752